When you browse on this site, cookies collect data to enhance your experience and personalize the content and advertising you see.
Visit our Privacy Policy to learn more. By continuing to use the site, you agree to this use of cookies and data.
  • In Deutschland
  • Länderverzeichnis
  • Für 7 Tage
  • Wassertemperatur
  • Satellitenkarten
  • Wetterkarte
  • Widgets
  • user-avatar
    Anmelden

    Stündliche Wetter Retschytsa

    Heute, 23 Mai, Donnerstag

    Zeit Temperatur Niederschläge Wind Luftdruck Luftfeuchtigkeit
    00:00 +15°C° 0.1 mm 0 m/S 745 mmHg 89%
    01:00 +14°C° 0.1 mm 0 m/S 745 mmHg 89%
    02:00 +14°C° 0.1 mm 0 m/S 745 mmHg 90%
    03:00 +14°C° 0 mm 0 m/S 745 mmHg 90%
    04:00 +14°C° 0 mm 0 m/S 745 mmHg 89%
    05:00 +14°C° 0 mm 0 m/S 745 mmHg 89%
    06:00 +16°C° 0 mm 0 m/S 745 mmHg 82%
    07:00 +18°C° 0 mm 0 m/S 745 mmHg 76%
    08:00 +20°C° 0 mm 0 m/S 745 mmHg 69%
    09:00 +21°C° 0.5 mm 0 m/S 745 mmHg 65%
    10:00 +23°C° 0.5 mm 0 m/S 745 mmHg 61%
    11:00 +24°C° 0.5 mm 0 m/S 745 mmHg 57%
    12:00 +26°C° 0.1 mm 1 m/S 745 mmHg 53%
    13:00 +27°C° 0.1 mm 1 m/S 745 mmHg 50%
    14:00 +27°C° 0.1 mm 1 m/S 745 mmHg 47%
    15:00 +27°C° 0 mm 1 m/S 745 mmHg 49%
    16:00 +26°C° 0 mm 1 m/S 744 mmHg 51%
    17:00 +26°C° 0 mm 1 m/S 744 mmHg 53%
    18:00 +25°C° 0 mm 1 m/S 744 mmHg 55%
    19:00 +23°C° 0 mm 1 m/S 744 mmHg 57%
    20:00 +22°C° 0 mm 1 m/S 745 mmHg 59%
    21:00 +22°C° 0 mm 1 m/S 745 mmHg 59%
    22:00 +21°C° 0 mm 1 m/S 745 mmHg 60%
    23:00 +21°C° 0 mm 1 m/S 745 mmHg 60%

    Morgen, 24 Mai, Freitag

    Zeit Temperatur Niederschläge Wind Luftdruck Luftfeuchtigkeit
    00:00 +20°C° 0 mm 1 m/S 745 mmHg 65%
    01:00 +16°C° 0 mm 0 m/S 745 mmHg 71%
    02:00 +15°C° 0 mm 0 m/S 745 mmHg 76%
    03:00 +15°C° 0 mm 0 m/S 745 mmHg 77%
    04:00 +15°C° 0 mm 0 m/S 745 mmHg 77%
    05:00 +15°C° 0 mm 0 m/S 745 mmHg 78%
    06:00 +18°C° 0 mm 0 m/S 745 mmHg 72%
    07:00 +20°C° 0 mm 0 m/S 746 mmHg 65%
    08:00 +22°C° 0 mm 0 m/S 746 mmHg 58%
    09:00 +23°C° 0 mm 0 m/S 745 mmHg 53%
    10:00 +25°C° 0 mm 0 m/S 745 mmHg 48%
    11:00 +26°C° 0 mm 0 m/S 745 mmHg 43%
    12:00 +26°C° 0 mm 0 m/S 745 mmHg 45%
    13:00 +25°C° 0 mm 0 m/S 745 mmHg 46%
    14:00 +27°C° 0 mm 1 m/S 744 mmHg 47%
    15:00 +25°C° 0 mm 0 m/S 744 mmHg 49%
    16:00 +24°C° 0 mm 0 m/S 744 mmHg 52%
    17:00 +24°C° 0 mm 0 m/S 744 mmHg 55%
    18:00 +24°C° 0.3 mm 1 m/S 744 mmHg 60%
    19:00 +23°C° 0.3 mm 1 m/S 744 mmHg 65%
    20:00 +21°C° 0.3 mm 1 m/S 744 mmHg 70%
    21:00 +20°C° 1 mm 1 m/S 744 mmHg 76%
    22:00 +19°C° 1 mm 1 m/S 744 mmHg 82%
    23:00 +18°C° 1 mm 2 m/S 744 mmHg 88%

    übermorgen, 25 Mai, Samstag

    Zeit Temperatur Niederschläge Wind Luftdruck Luftfeuchtigkeit
    00:00 +18°C° 0 mm 1 m/S 744 mmHg 89%
    01:00 +18°C° 0 mm 1 m/S 743 mmHg 89%
    02:00 +18°C° 0 mm 1 m/S 743 mmHg 90%
    03:00 +18°C° 0.2 mm 1 m/S 743 mmHg 90%
    04:00 +18°C° 0.2 mm 1 m/S 743 mmHg 90%
    05:00 +18°C° 0.2 mm 1 m/S 743 mmHg 90%
    06:00 +19°C° 0.7 mm 1 m/S 743 mmHg 85%
    07:00 +21°C° 0.7 mm 1 m/S 743 mmHg 81%
    08:00 +22°C° 0.7 mm 1 m/S 743 mmHg 76%
    09:00 +23°C° 1.1 mm 1 m/S 743 mmHg 72%
    10:00 +24°C° 1.1 mm 1 m/S 743 mmHg 68%
    11:00 +24°C° 1.1 mm 2 m/S 743 mmHg 63%
    12:00 +24°C° 1.7 mm 2 m/S 742 mmHg 67%
    13:00 +22°C° 1.7 mm 3 m/S 742 mmHg 71%
    14:00 +22°C° 1.7 mm 4 m/S 742 mmHg 75%
    15:00 +21°C° 1.4 mm 4 m/S 742 mmHg 78%
    16:00 +21°C° 1.4 mm 4 m/S 742 mmHg 81%
    17:00 +20°C° 1.4 mm 4 m/S 742 mmHg 84%
    18:00 +19°C° 0.3 mm 3 m/S 742 mmHg 86%
    19:00 +18°C° 0.3 mm 3 m/S 742 mmHg 88%
    20:00 +17°C° 0.3 mm 2 m/S 742 mmHg 90%
    21:00 +17°C° 0 mm 3 m/S 743 mmHg 90%
    22:00 +16°C° 0 mm 3 m/S 743 mmHg 90%
    23:00 +14°C° 0 mm 3 m/S 743 mmHg 90%

    26 Mai, Sonntag

    Zeit Temperatur Niederschläge Wind Luftdruck Luftfeuchtigkeit
    00:00 +13°C° 0 mm 3 m/S 743 mmHg 91%
    01:00 +13°C° 0 mm 3 m/S 743 mmHg 93%
    02:00 +12°C° 0 mm 3 m/S 744 mmHg 94%
    03:00 +13°C° 0 mm 2 m/S 744 mmHg 95%
    04:00 +13°C° 0 mm 2 m/S 744 mmHg 95%
    05:00 +13°C° 0 mm 2 m/S 744 mmHg 95%
    06:00 +14°C° 0 mm 2 m/S 744 mmHg 87%
    07:00 +14°C° 0 mm 3 m/S 745 mmHg 78%
    08:00 +16°C° 0 mm 3 m/S 745 mmHg 70%
    09:00 +17°C° 0 mm 3 m/S 745 mmHg 65%
    10:00 +19°C° 0 mm 4 m/S 744 mmHg 60%
    11:00 +20°C° 0 mm 4 m/S 744 mmHg 56%
    12:00 +20°C° 0 mm 4 m/S 744 mmHg 55%
    13:00 +20°C° 0 mm 5 m/S 744 mmHg 53%
    14:00 +21°C° 0 mm 5 m/S 744 mmHg 52%
    15:00 +21°C° 0 mm 4 m/S 743 mmHg 54%
    16:00 +21°C° 0 mm 4 m/S 743 mmHg 55%
    17:00 +21°C° 0 mm 4 m/S 743 mmHg 56%
    18:00 +19°C° 0.3 mm 4 m/S 743 mmHg 67%
    19:00 +17°C° 0.3 mm 3 m/S 743 mmHg 77%
    20:00 +14°C° 0.3 mm 3 m/S 743 mmHg 88%
    21:00 +13°C° 0.3 mm 3 m/S 743 mmHg 88%
    22:00 +12°C° 0.3 mm 3 m/S 743 mmHg 89%
    23:00 +11°C° 0.3 mm 3 m/S 744 mmHg 90%

    27 Mai, Montag

    Zeit Temperatur Niederschläge Wind Luftdruck Luftfeuchtigkeit
    00:00 +10°C° 0 mm 3 m/S 744 mmHg 90%
    01:00 +8°C° 0 mm 4 m/S 744 mmHg 91%
    02:00 +7°C° 0 mm 4 m/S 744 mmHg 92%
    03:00 +7°C° 0 mm 4 m/S 745 mmHg 91%
    04:00 +7°C° 0 mm 4 m/S 745 mmHg 90%
    05:00 +7°C° 0 mm 5 m/S 746 mmHg 89%
    06:00 +8°C° 0 mm 5 m/S 746 mmHg 83%
    07:00 +9°C° 0 mm 5 m/S 746 mmHg 78%
    08:00 +9°C° 0 mm 6 m/S 747 mmHg 73%
    09:00 +10°C° 0 mm 6 m/S 747 mmHg 70%
    10:00 +11°C° 0 mm 6 m/S 748 mmHg 66%
    11:00 +14°C° 0 mm 5 m/S 748 mmHg 63%
    12:00 +15°C° 0 mm 5 m/S 748 mmHg 61%
    13:00 +16°C° 0 mm 5 m/S 749 mmHg 59%
    14:00 +18°C° 0 mm 4 m/S 749 mmHg 58%
    15:00 +18°C° 0 mm 4 m/S 749 mmHg 58%
    16:00 +18°C° 0 mm 4 m/S 749 mmHg 58%
    17:00 +19°C° 0 mm 4 m/S 749 mmHg 59%
    18:00 +17°C° 0 mm 3 m/S 749 mmHg 65%
    19:00 +15°C° 0 mm 2 m/S 749 mmHg 72%
    20:00 +14°C° 0 mm 1 m/S 749 mmHg 79%
    21:00 +13°C° 0 mm 1 m/S 750 mmHg 81%
    22:00 +13°C° 0 mm 2 m/S 750 mmHg 83%
    23:00 +12°C° 0 mm 2 m/S 750 mmHg 85%

    28 Mai, Dienstag

    Zeit Temperatur Niederschläge Wind Luftdruck Luftfeuchtigkeit
    00:00 +12°C° 0 mm 2 m/S 751 mmHg 87%
    01:00 +10°C° 0 mm 2 m/S 751 mmHg 90%
    02:00 +10°C° 0 mm 2 m/S 751 mmHg 92%
    03:00 +10°C° 0 mm 2 m/S 751 mmHg 92%
    04:00 +10°C° 0 mm 2 m/S 751 mmHg 91%
    05:00 +10°C° 0 mm 2 m/S 751 mmHg 90%
    06:00 +13°C° 0 mm 2 m/S 751 mmHg 83%
    07:00 +16°C° 0 mm 3 m/S 751 mmHg 76%
    08:00 +18°C° 0 mm 4 m/S 751 mmHg 68%
    09:00 +19°C° 0 mm 4 m/S 751 mmHg 65%
    10:00 +21°C° 0 mm 4 m/S 750 mmHg 61%
    11:00 +22°C° 0 mm 4 m/S 750 mmHg 58%
    12:00 +21°C° 0.4 mm 4 m/S 750 mmHg 67%
    13:00 +20°C° 0.4 mm 4 m/S 749 mmHg 76%
    14:00 +19°C° 0.4 mm 4 m/S 749 mmHg 85%
    15:00 +20°C° 0.6 mm 5 m/S 749 mmHg 85%
    16:00 +20°C° 0.6 mm 5 m/S 748 mmHg 85%
    17:00 +20°C° 0.6 mm 5 m/S 748 mmHg 86%
    18:00 +20°C° 0.1 mm 5 m/S 747 mmHg 85%
    19:00 +20°C° 0.1 mm 5 m/S 747 mmHg 84%
    20:00 +20°C° 0.1 mm 5 m/S 747 mmHg 84%
    21:00 +19°C° 0 mm 5 m/S 747 mmHg 84%
    22:00 +19°C° 0 mm 5 m/S 747 mmHg 85%
    23:00 +19°C° 0 mm 5 m/S 747 mmHg 86%
    Mehr zeigen